This is the latest recevied weather packets stored in our database for station/object KD7CIH. If no packets are shown the sender has not sent any weather packets the latest 10 day(s).
| Time | Temp. | Humidity | Pressure | Rain* | Wind** | Luminosity | Snow |
|---|---|---|---|---|---|---|---|
| 1787546586 | 17.78° C | 52% | 1019.9 hPa | 0 mm | - | - | - |
| 1787546285 | 18.33° C | 51% | 1019.6 hPa | 0 mm | - | - | - |
| 1787545985 | 18.33° C | 51% | 1019.8 hPa | 0 mm | - | - | - |
| 1787545812 | 18.33° C | 52% | 1019.6 hPa | 0 mm | - | - | - |
| 1787545385 | 18.33° C | 52% | 1019.6 hPa | 0 mm | - | - | - |
| 1787545087 | 17.78° C | 53% | 1019.8 hPa | 0 mm | - | - | - |
| 1787544788 | 17.78° C | 55% | 1019.6 hPa | 0 mm | - | - | - |
| 1787544486 | 17.22° C | 58% | 1019.5 hPa | 0 mm | - | - | - |
| 1787544187 | 17.22° C | 61% | 1019.6 hPa | 0 mm | - | - | - |
| 1787543886 | 17.22° C | 60% | 1019.4 hPa | 0 mm | - | - | - |
| 1787543715 | 17.22° C | 61% | 1019.5 hPa | 0 mm | - | - | - |
| 1787543286 | 17.78° C | 61% | 1019.5 hPa | 0 mm | - | - | - |
| 1787542988 | 17.78° C | 58% | 1019.6 hPa | 0 mm | - | - | - |
| 1787542815 | 17.78° C | 55% | 1020.2 hPa | 0 mm | - | - | - |
| 1787542515 | 17.78° C | 55% | 1020.4 hPa | 0 mm | - | - | - |
| 1787542087 | 17.78° C | 56% | 1020.2 hPa | 0 mm | - | - | - |
| 1787541917 | 17.78° C | 55% | 1020.2 hPa | 0 mm | - | - | - |
| 1787541486 | 17.78° C | 55% | 1020 hPa | 0 mm | - | - | - |
| 1787541314 | 17.78° C | 55% | 1020.1 hPa | 0 mm | - | - | - |
| 1787540890 | 17.78° C | 57% | 1020.2 hPa | 0 mm | - | - | - |
| 1787540716 | 17.78° C | 57% | 1020.4 hPa | 0 mm | - | - | - |
| 1787540288 | 17.78° C | 56% | 1020.4 hPa | 0 mm | - | - | - |
| 1787539988 | 18.33° C | 55% | 1020.4 hPa | 0 mm | - | - | - |
| 1787539686 | 18.33° C | 51% | 1020.4 hPa | 0 mm | - | - | - |
| 1787539386 | 18.33° C | 52% | 1019.9 hPa | 0 mm | - | - | - |
* Rain latest hour (hover to see other rain measurements)
** Current wind speed in m/s (hover to see current wind gust speed)